Погода в Южно-Морском

Россия / Приморский край     42°51′35″N   132°41′27″E
темп.,
°C
ветер,
м/с
пор.,
м/с
влажн.,
%
обл.,
%
осадки,
мм/ч
давл.,
гПа
погр.,
м
29 января, пт
пт2901:00−8с121974100 2.9 10001312
04:00−11ссз162287100 3.8 10021000
07:00−13ссз131883100 0.5 1006913
10:00−15сз141988100 0.6 1011983
13:00−14ссз12178426 0.0 1013931
16:00−14сз13178213 0.0 10141030
19:00−16ссз1317860 0.0 10181030
22:00−17ссз1114870 0.0 1019831
30 января, сб
сб3001:00−18сз912860 0.0 1021514
04:00−19ссз67920 0.0 1021316
07:00−20с56900 0.0 1022251
10:00−18ссв56790 0.0 1022216
13:00−12ссз345971 0.0 1021321
16:00−9сз9117073 0.0 1021824
19:00−12ссз813710 0.0 1024620
22:00−15ссз68750 0.0 1026373
31 января, вс
вс3101:00−16ссз79810 0.0 1028360
04:00−17ссз68820 0.0 1029349
07:00−18с45860 0.0 1029295
10:00−18с55890 0.0 1030242
13:00−12с35580 0.0 1029434
16:00−8сз47467 0.0 1028672
19:00−9сз33572 0.0 1028419
22:00−11св337135 0.0 1027209
1 февраля, пн
пн101:00−11св4486100 0.1 1025219
04:00−9всв6793100 0.2 1020351
07:00−7в81091100 0.2 1015436
10:00−6всв6888100 0.3 1011337
13:00−2вюв5693100 0.1 1006335
16:00−2з5794100 2.8 1003518
19:00−3сз121586100 0.3 1006879
22:00−13ссз12187650 0.3 1012945
2 февраля, вт
вт201:00−15ссз1318820 0.0 10151043
04:00−16сз1418840 0.0 10171130
07:00−17сз1217860 0.0 1019957
10:00−17сз1216800 0.0 10211097
13:00−15сз1013740 0.0 10201086
16:00−13зсз9126920 0.0 10191593
19:00−13сз9137596 0.1 10201382
22:00−15сз9138072 0.1 10221124